DECAYED

RESURS P1 DEB, 60216 (Decayed)

Orbit data source: Space-Track

RESURS P1 DEB, 60216 was space debris in LEO originally from a Commonwealth of Independent States-origin launch on Tue, 25 Jun 2013 UTC launched from the Tyuratam Missile And Space Complex (TTMTR). Debris objects in space refer to the collection of defunct objects orbiting the Earth. Examples of debris include non-operational satellites, rocket bodies, and fragments generated from explosions, collisions, or faulty payload assembly.

Not visible in the next 10 days
Identifier
60216, 2013-030E
Orbit
Decayed
Country
Flag of CISCIS
Related business
Manufacturer
TSSKBP?
Mission
Decayed spacecraft
Bus & Motor
Unknown
Mass
Unknown
Launch date (UTC)
2013-06-25 (12 years ago)
Launch vehicle
Unknown
Launch site
Tyuratam Missile And Space Complex (TTMTR)
Object type
Payload
Rocket body
Debris
Shape & HBR
Unknown
Radar Cross Section
Large (>1 m²)

Expand to show TLE details & history
Last TLE update: 1 year ago

TLE from 1 year ago
0 RESURS P1 DEB
1 60216U 13030E   24244.87520159  .42780580  27137-5  40980-3 0  9998
2 60216  96.8796 294.7598 0007665 218.7824 259.3605 16.51241066 10331
Epoch: 2024-08-31T21:00Z
TLE epoch observation values (Epoch: 2024-08-31T21:00:17.417Z)
Latitude
61.28289°
Longitude
-168.19306°
Altitude
147.553 km
Speed
7.823 km/s
True Right ascension
08h 29m 37s
True Declination
61° 07' 27"
Sunlit
Object was in daylight at epoch
Visualization orbit readout
Latitude
Unknown
Longitude
Unknown
Altitude
Unknown
Speed
Unknown
Apparent Right ascension
Unknown
Apparent Declination
Unknown
Sunlit
N/A
Visualization observer readout
Local Sidereal Time
00:08:00
Azimuth
Unknown
Elevation
Unknown
Doppler factor
Unknown
Orbital elements
Apogee altitude
137.83 km
Perigee altitude
127.849 km
Semi-major axis
6,510.977 km
Eccentricity
0.00077
Inclination
96.8796°
RAAN
294.7598°
Arg. of periapsis
218.7824°
True anomaly
259.27419°
Mean anomaly
259.3605°
Eccentric anomaly
259.31734°
Mean motion
4.13118 °/min
Orbital period
87.14 mins
BSTAR
0.0004098
Loading maneuver chart data...
Computing Atmospheric mass density...

Documentation

Showing up to 5 results
|